SKCG

Details ICAO SKCG (CTG)
Name RAFAEL NUNEZ
Region Colombia
Timezone America/Bogota (UTC-5.0)
Plans Departing 157
Arriving 206
Stats Elevation 4 ft / 1 m (AMSL)
Location 10.442379° -75.512961°
Runways 1
Magnetic Variation 7.261° W
Sunrise 2018-05-22 10:40:48 UTC / 2018-05-22 05:40:48 Local
Sunset 2018-05-22 23:19:31 UTC / 2018-05-22 18:19:31 Local
Advertisement - Login to hide

Runways

ID Width Length Bearing (true) Bearing (mag) Surface Threshold Offset Overrun Length
01 148 ft / 45 m 8,584 ft / 2,616 m 2.31° 9.57° Asphalt 0 ft / 0 m 180 ft / 55 m
19 148 ft / 45 m 8,584 ft / 2,616 m 182.31° 189.57° Asphalt 190 ft / 58 m 0 ft / 0 m

Map

Weather


0- 5 10 15 20 25 30 35+ Temperature / ° C

Clouds and Precipitation
Forecast for 2018-05-22 12:00 UTC. Updated an hour ago

Ground ~20,000 ft ~40,000 ft Winds

METAR

SKCG 221000Z 09003KT 9999 SCT009 BKN070 26/24 A2983

TAF

Not found

Frequencies

Tower 118.30 MHz TWR
Approach 119.10 MHz BARRANQUILLA APP
Warning: Do not use this data for real-world aviation or navigation. No guarantee of current accuracy is given.